Tracking 31027 objects as of 19-Jul-2025
HD Live streaming from Space Station
objects crossing your sky now

STARLINK-4763

Track STARLINK-4763 now!
10-day predictions
STARLINK-4763 is classified as:


NORAD ID: 53805
Int'l Code: 2022-111AJ
Perigee: 546.0 km
Apogee: 547.7 km
Inclination: 53.2 °
Period: 95.4 minutes
Semi major axis: 6917 km
RCS: Unknown
Launch date: September 11, 2022
Source: United States (US)
Launch site: AIR FORCE EASTERN TEST RANGE (AFETR)
Your satellite tracking list
STARLINK-1243
Track 1 satellite(s)




NASA's NSSDC Master Catalog

Two Line Element Set (TLE):
1 53805U 22111AJ  25199.32425172 -.00000254  00000-0  21338-5 0  9994
2 53805  53.2160 221.3561 0001220  81.5726 278.5405 15.08837068158645
Source of the keplerian elements: AFSPC